Wind_Speed
12 12 12 11 11 10 9 9 9 8 8 7 7 7 6 6 6 7 6 6 5 5 4 3 3 3 3 2 2 2 1 1 1 1 2 2 3 3 4 5 5 6 6
14 13 13 13 12 11 11 10 10 9 9 8 8 7 7 7 7 7 7 6 6 5 4 3 3 2 2 1 1 1 1 1 1 0 1 1 1 2 3 4 4 5 6
15 15 14 14 13 12 12 11 11 11 10 9 9 8 8 8 7 7 7 7 6 6 5 4 4 2 2 1 1 0 0 0 0 0 0 0 1 1 2 3 4 5 5
16 16 15 15 14 14 13 13 12 12 11 11 10 10 9 9 8 8 8 8 7 7 6 5 4 3 3 2 1 1 1 1 2 1 1 1 1 2 2 3 4 5 5
18 17 16 16 15 15 14 14 13 13 12 12 12 11 10 10 10 9 9 9 9 8 7 6 5 5 4 3 3 2 2 3 3 3 3 3 3 3 4 4 4 5 5
19 18 18 17 17 16 16 15 15 14 14 13 13 13 12 11 10 10 10 10 10 9 8 8 7 6 6 5 5 4 3 4 4 4 3 4 4 4 4 4 5 5 6
21 20 19 19 18 17 17 16 16 16 15 15 14 13 13 12 11 12 11 11 11 11 10 9 9 8 7 7 6 6 6 5 4 5 5 5 5 5 5 5 6 6 6
23 22 21 20 19 19 19 18 17 17 16 16 15 14 14 14 13 12 13 12 12 12 11 11 10 10 9 8 7 7 7 7 6 6 6 6 6 6 6 6 7 7 7
25 24 23 22 21 21 20 20 19 18 18 17 17 16 15 14 14 14 13 13 13 13 13 12 12 11 10 10 9 9 8 8 8 8 8 8 7 7 8 8 8 8 8
27 26 25 24 23 23 22 21 21 20 19 19 18 18 16 16 15 14 14 14 14 14 13 13 12 12 12 11 11 10 10 10 9 9 9 9 9 9 9 9 9 9 10
29 28 27 27 26 25 24 23 22 22 21 21 20 19 18 17 16 15 15 14 14 14 14 14 13 13 13 13 12 12 12 11 11 11 11 11 11 11 11 11 11 11 11
31 30 29 29 28 27 26 25 24 23 23 23 22 21 20 19 18 17 16 16 15 16 15 15 15 15 15 14 14 14 13 13 13 12 12 12 13 13 13 13 13 13 13
33 33 32 31 29 28 27 27 26 25 25 25 24 23 22 21 20 19 19 18 17 17 17 16 16 16 16 16 16 16 15 15 14 14 14 14 14 14 14 15 14 15 15
36 34 34 33 31 30 29 29 28 27 26 26 26 25 24 23 23 22 21 20 19 18 18 18 18 17 17 17 17 17 17 17 17 17 16 16 16 16 16 16 16 17 16
38 37 36 35 34 32 31 30 29 29 29 28 27 27 26 25 24 24 23 22 21 20 20 19 19 19 18 18 18 18 18 18 19 19 19 18 18 18 18 18 18 18 18
39 39 38 37 36 35 33 32 31 31 30 29 29 28 28 27 26 26 25 24 24 23 22 21 21 20 20 20 20 19 19 19 19 20 20 20 20 20 19 19 19 18 19
41 40 39 38 38 37 35 34 33 32 32 31 30 30 30 28 27 27 26 26 25 25 24 24 23 22 22 21 21 21 21 21 20 20 21 21 22 22 21 21 21 20 20
44 42 42 41 39 39 38 36 35 34 33 32 32 32 32 30 29 29 28 27 27 26 25 25 24 24 24 23 22 22 22 22 22 22 22 22 23 23 23 23 23 23 23
46 45 44 43 42 41 40 38 37 36 35 34 33 33 33 32 31 31 30 29 29 28 27 26 26 25 25 25 24 24 23 23 24 24 23 24 24 24 24 24 24 24 24
49 48 46 45 44 43 42 41 40 39 38 37 36 35 34 34 33 32 31 30 30 30 29 28 28 27 27 27 27 26 26 25 25 25 26 25 25 25 25 25 25 26 25
51 50 49 47 46 44 44 43 42 41 41 39 39 38 37 36 35 34 33 32 32 32 31 30 30 30 30 29 29 29 28 28 28 27 27 27 26 27 27 26 26 26 26
53 52 51 49 48 46 45 44 43 43 42 41 40 39 39 38 37 35 34 34 34 33 33 32 31 31 31 31 31 30 30 30 30 29 29 28 28 28 28 27 27 28 28
54 53 52 50 49 48 46 45 44 43 43 42 41 41 40 40 39 37 36 36 35 35 34 34 33 32 32 32 31 31 31 31 30 30 30 29 29 29 29 28 29 29 29
54 54 53 52 50 49 48 46 45 44 43 42 42 42 41 41 41 39 39 38 37 36 35 35 34 34 33 33 32 32 31 31 30 30 30 29 30 30 30 30 30 30 30
54 54 54 53 52 51 49 48 46 45 44 43 43 43 42 43 43 42 41 40 39 38 37 36 36 35 35 35 34 33 33 32 32 31 30 30 30 30 30 31 31 30 31
55 54 54 54 53 52 51 50 48 46 45 44 43 43 43 43 43 43 43 42 41 40 39 38 38 37 37 36 36 35 35 34 33 33 33 32 32 32 33 32 32 32 31
Wind_Direction
218 217 214 212 210 209 209 207 204 200 196 192 187 186 183 177 173 174 172 169 166 161 159 151 144 139 124 120 117 115 121 128 127 117 98 81 61 56 54 50 45 42 42
222 221 218 217 215 214 215 214 210 208 206 204 200 197 194 190 188 187 185 182 183 183 180 176 169 158 144 137 135 126 137 143 146 124 95 82 56 43 38 36 31 31 32
225 223 221 220 220 219 219 218 216 215 213 211 209 206 203 201 199 200 198 195 196 197 197 197 197 191 192 193 190 215 280 277 262 268 289 21 21 17 14 17 17 20 23
226 225 223 222 222 222 222 221 221 220 219 217 215 213 211 210 210 212 210 207 206 207 210 212 215 217 222 227 238 266 295 295 277 278 287 292 308 326 339 355 2 7 8
227 226 225 224 224 224 224 224 223 224 223 221 219 217 216 216 218 220 218 215 213 214 218 222 225 228 233 238 249 265 284 286 278 276 284 290 295 302 312 326 339 349 351
227 226 226 225 224 224 225 225 225 225 225 224 223 223 223 222 223 224 224 221 219 220 224 228 230 234 238 244 251 261 274 282 280 281 288 294 298 302 309 317 324 331 335
228 227 226 225 225 225 225 226 226 226 226 227 226 226 226 226 228 227 226 226 225 227 229 231 233 237 239 244 251 258 262 270 275 279 287 294 299 299 302 309 317 323 325
228 228 227 227 227 226 226 227 228 227 227 228 228 227 228 230 231 231 231 230 230 231 232 234 235 239 241 244 250 256 260 262 267 275 283 288 294 297 298 304 308 313 317
229 229 229 229 229 229 229 229 228 229 229 229 228 229 230 232 234 234 235 233 233 233 233 235 238 239 242 245 248 251 256 262 266 271 277 282 286 290 295 299 303 306 310
230 230 230 230 230 231 231 231 230 230 230 230 230 230 231 233 235 235 235 236 235 235 235 235 239 242 245 245 247 250 254 260 265 268 272 275 279 284 289 293 297 301 304
231 231 231 231 231 232 232 232 231 232 231 231 231 231 231 232 234 235 236 236 237 237 236 236 239 243 245 246 247 251 255 259 263 267 270 274 278 280 283 287 291 296 298
232 232 231 232 232 232 233 233 233 233 232 231 230 230 231 232 233 235 236 236 238 238 237 238 240 244 246 248 249 251 254 258 260 264 268 272 276 279 283 286 288 291 293
233 232 232 232 232 233 233 233 233 232 232 231 230 230 232 233 233 234 235 236 238 239 240 241 244 247 248 249 251 252 255 257 260 264 268 272 275 278 282 285 287 289 291
234 233 233 233 233 233 233 233 232 232 231 231 231 230 231 233 234 234 236 238 239 240 241 244 246 248 249 251 252 254 255 259 261 264 268 271 273 276 279 283 285 287 289
234 234 233 233 233 233 234 233 233 232 232 232 232 231 231 233 234 235 237 239 240 242 243 244 246 248 249 251 253 254 256 259 262 264 267 269 271 274 278 281 283 285 286
234 233 233 233 233 233 233 232 233 233 232 232 232 231 232 233 234 236 238 240 241 243 245 246 248 250 250 251 253 255 257 260 262 265 266 267 269 272 276 279 281 284 286
233 234 233 233 232 232 232 233 232 232 232 232 232 232 231 233 235 236 238 241 242 243 245 246 248 250 252 252 253 254 257 260 263 265 267 268 268 270 273 276 279 281 284
233 234 234 233 232 231 232 232 231 231 231 232 233 233 232 234 236 237 238 241 242 242 243 246 247 249 252 253 254 256 258 260 263 265 267 269 270 270 272 274 277 279 282
233 233 233 233 233 232 232 232 232 232 231 232 234 234 234 236 237 237 239 241 242 243 243 245 247 249 251 252 255 257 259 261 264 265 267 268 270 271 272 274 276 278 280
233 233 233 233 233 233 233 233 233 233 232 232 234 235 236 237 238 239 240 241 243 243 244 245 248 251 252 254 256 257 259 261 265 267 266 267 268 270 271 273 275 277 279
233 232 233 233 233 233 233 234 233 233 233 234 235 237 237 238 238 239 240 242 243 244 245 247 249 251 252 254 255 257 258 261 264 265 266 266 267 269 270 273 275 277 279
233 233 233 233 234 234 234 233 234 234 234 235 237 237 237 237 238 240 241 243 245 245 246 248 250 252 254 255 256 257 259 261 263 265 266 267 267 268 269 272 275 277 278
232 232 232 232 233 233 234 234 234 235 236 236 237 236 237 238 238 240 241 243 245 245 247 248 250 252 254 255 256 258 260 261 263 264 265 266 267 268 269 271 273 275 276
232 231 231 231 231 232 233 233 234 235 236 237 237 237 237 238 239 240 241 243 244 245 247 249 251 252 253 254 255 256 259 260 262 263 264 265 266 268 269 271 273 275 276
231 231 231 230 231 231 232 232 233 234 235 236 237 238 238 238 239 241 242 243 244 245 247 249 251 252 253 255 256 257 258 260 261 263 264 265 266 268 269 272 273 275 276
230 230 231 231 231 231 231 232 233 234 235 236 237 238 238 239 240 242 243 244 244 246 248 250 252 253 254 254 256 257 258 259 261 262 264 264 266 268 269 272 273 274 275
Height
5844 5846 5847 5849 5850 5852 5854 5855 5857 5858 5859 5861 5862 5863 5865 5866 5868 5869 5871 5872 5873 5874 5875 5877 5877 5878 5879 5879 5880 5881 5881 5882 5882 5882 5882 5883 5883 5883 5883 5883 5883 5883 5882
5843 5844 5846 5847 5849 5851 5852 5854 5855 5857 5858 5860 5861 5863 5864 5866 5867 5869 5870 5871 5873 5874 5875 5876 5877 5878 5879 5880 5880 5881 5881 5882 5882 5882 5883 5883 5883 5883 5883 5883 5883 5883 5882
5841 5842 5844 5846 5847 5849 5850 5852 5854 5855 5857 5858 5860 5862 5863 5865 5866 5868 5869 5871 5872 5874 5875 5876 5877 5878 5879 5880 5880 5881 5881 5881 5882 5882 5882 5883 5883 5883 5883 5883 5883 5883 5883
5838 5840 5841 5843 5845 5847 5848 5850 5852 5854 5855 5857 5858 5860 5862 5863 5865 5867 5868 5870 5871 5873 5874 5876 5877 5878 5879 5879 5880 5880 5881 5881 5882 5882 5882 5883 5883 5883 5883 5883 5883 5883 5883
5835 5837 5839 5841 5843 5845 5846 5848 5850 5852 5853 5855 5857 5858 5860 5862 5863 5865 5867 5868 5870 5872 5873 5875 5876 5877 5878 5879 5879 5880 5880 5881 5881 5881 5882 5883 5883 5883 5883 5883 5883 5883 5882
5832 5834 5836 5838 5840 5842 5844 5846 5848 5849 5851 5853 5855 5856 5858 5860 5862 5863 5865 5867 5868 5870 5872 5873 5875 5876 5877 5878 5879 5879 5880 5880 5880 5881 5881 5882 5882 5882 5883 5883 5883 5882 5882
5829 5831 5833 5835 5837 5839 5841 5843 5845 5847 5849 5851 5852 5854 5856 5858 5860 5861 5863 5865 5867 5868 5870 5872 5873 5874 5875 5876 5877 5878 5879 5879 5879 5880 5881 5881 5882 5882 5882 5882 5882 5882 5882
5825 5827 5829 5831 5834 5836 5838 5840 5842 5844 5846 5848 5850 5852 5854 5856 5857 5859 5861 5863 5865 5866 5868 5869 5871 5872 5874 5875 5876 5877 5878 5878 5879 5879 5880 5880 5880 5881 5881 5881 5881 5881 5881
5820 5823 5825 5828 5830 5832 5835 5837 5839 5841 5843 5845 5847 5849 5851 5853 5855 5857 5859 5861 5862 5864 5866 5867 5869 5870 5872 5873 5874 5875 5876 5877 5877 5878 5878 5879 5879 5880 5880 5880 5880 5880 5879
5815 5818 5821 5823 5826 5828 5831 5833 5835 5837 5840 5842 5844 5846 5848 5850 5852 5854 5856 5858 5860 5861 5863 5865 5866 5868 5869 5871 5872 5873 5874 5875 5876 5876 5877 5877 5878 5878 5878 5878 5878 5878 5878
5810 5813 5816 5819 5821 5824 5826 5829 5831 5834 5836 5838 5840 5843 5845 5847 5849 5851 5853 5855 5857 5859 5861 5862 5864 5865 5867 5868 5870 5871 5872 5873 5874 5874 5875 5875 5876 5876 5876 5876 5876 5876 5876
5805 5808 5810 5813 5816 5819 5822 5824 5827 5829 5832 5834 5836 5839 5841 5844 5846 5848 5850 5852 5854 5856 5858 5860 5861 5863 5864 5866 5867 5868 5870 5871 5871 5872 5873 5873 5874 5874 5874 5874 5874 5874 5874
5798 5801 5805 5808 5811 5814 5816 5819 5822 5824 5827 5829 5832 5835 5837 5840 5842 5845 5847 5849 5851 5853 5855 5856 5858 5860 5861 5863 5864 5865 5867 5868 5869 5870 5870 5871 5871 5872 5872 5872 5872 5872 5871
5791 5795 5798 5802 5805 5808 5811 5813 5816 5819 5822 5825 5827 5830 5833 5835 5838 5841 5843 5845 5847 5849 5851 5853 5855 5857 5858 5859 5861 5862 5863 5865 5866 5867 5867 5868 5868 5869 5869 5869 5869 5869 5868
5784 5788 5791 5795 5798 5801 5805 5807 5810 5813 5816 5819 5822 5825 5828 5831 5834 5836 5839 5841 5844 5846 5848 5849 5851 5853 5855 5856 5857 5859 5860 5861 5862 5863 5864 5864 5865 5865 5865 5866 5865 5865 5865
5776 5780 5784 5788 5792 5795 5798 5801 5804 5807 5811 5814 5817 5820 5823 5826 5829 5832 5834 5837 5839 5841 5843 5845 5847 5849 5850 5852 5853 5855 5856 5857 5858 5859 5860 5861 5861 5862 5862 5862 5862 5862 5862
5768 5772 5776 5781 5784 5788 5791 5795 5798 5801 5804 5808 5811 5815 5818 5821 5824 5827 5829 5832 5834 5837 5839 5841 5843 5844 5846 5847 5849 5850 5852 5853 5854 5855 5856 5856 5857 5857 5858 5858 5858 5858 5858
5759 5764 5768 5772 5776 5780 5784 5788 5791 5795 5798 5802 5805 5809 5812 5815 5818 5821 5824 5827 5829 5831 5833 5836 5838 5840 5841 5843 5844 5846 5847 5848 5849 5850 5851 5851 5852 5853 5853 5853 5854 5853 5853
5750 5755 5759 5764 5768 5773 5777 5780 5784 5788 5792 5796 5799 5803 5806 5809 5812 5815 5818 5821 5823 5826 5828 5830 5832 5834 5836 5838 5839 5841 5842 5843 5844 5845 5846 5846 5847 5847 5848 5848 5849 5849 5848
5740 5745 5750 5755 5759 5764 5768 5772 5776 5781 5784 5788 5792 5795 5799 5802 5805 5809 5812 5815 5817 5820 5823 5825 5827 5829 5831 5832 5834 5836 5837 5838 5839 5840 5840 5841 5841 5842 5843 5843 5843 5843 5843
5729 5735 5740 5745 5750 5755 5760 5764 5768 5773 5777 5781 5784 5788 5791 5795 5798 5802 5805 5808 5811 5814 5816 5819 5821 5822 5824 5826 5828 5830 5831 5832 5833 5834 5835 5835 5836 5836 5837 5837 5837 5837 5838
5718 5724 5729 5735 5740 5745 5750 5755 5760 5764 5768 5772 5776 5780 5783 5787 5791 5795 5798 5801 5804 5807 5810 5812 5814 5816 5818 5820 5822 5823 5824 5826 5827 5828 5829 5829 5830 5830 5831 5831 5831 5831 5831
5707 5713 5719 5725 5730 5735 5740 5745 5750 5755 5759 5763 5767 5771 5775 5779 5783 5787 5790 5794 5797 5800 5802 5805 5807 5809 5811 5813 5814 5816 5818 5819 5821 5822 5822 5823 5823 5824 5824 5825 5825 5825 5825
5695 5701 5708 5713 5719 5725 5730 5736 5741 5746 5750 5755 5759 5763 5767 5771 5775 5779 5782 5786 5789 5792 5794 5797 5800 5802 5804 5806 5807 5809 5811 5812 5814 5815 5816 5816 5816 5817 5818 5818 5818 5818 5818
5683 5690 5696 5703 5708 5714 5720 5726 5731 5736 5741 5745 5749 5753 5757 5762 5766 5770 5774 5777 5780 5783 5786 5789 5792 5794 5796 5798 5800 5801 5803 5805 5806 5808 5809 5809 5810 5810 5811 5811 5811 5811 5810
5671 5678 5685 5692 5698 5704 5710 5715 5721 5726 5731 5736 5740 5744 5749 5753 5757 5760 5764 5768 5771 5775 5778 5780 5783 5785 5788 5790 5792 5794 5795 5797 5798 5800 5801 5802 5802 5803 5803 5803 5803 5803 5803